Location: Avenches
(46.8809°N, 7.0410°E)
Time: 21:47:31
(UTC+00:00)

SL-16 R/B - Pass Details

Date: 30 March 2020
Orbit: 841 x 849 km, 71.0° (Epoch: 02 June)

Event Time Altitude Azimuth Distance (km) Brightness Sun altitude
Rises 18:30:25 0° 184° (S) 3,383 5.3 -6.1°
Reaches altitude 10° 18:32:56 10° 178° (S) 2,452 4.5 -6.6°
Maximum altitude 18:38:14 44° 108° (ESE) 1,149 2.5 -7.4°
Drops below altitude 10° 18:43:34 10° 38° (NE) 2,467 4.4 -8.3°
Sets 18:46:07 0° 32° (NNE) 3,406 5.2 -8.7°
